BCY711D EGFF-EGSH

Flight info

Callsign BCY711D
Flight time N/A
Altitude 23000
Route LEKCI1B LEKCI P4 HAWFA L607 ALHAD P72 BPK N16 BKY DCT
Aircraft RJ85/M-SDFGIRWY/LB1

Departure

Time N/A
Airport Cardiff International Airport (EGFF)

Arrival

Time 2026-05-04 17:22
Airport Norwich Airport (EGSH)
Time Latitude Longitude Altitude Speed Heading
2026-05-04 17:07 51.97054 -0.00261 23011 ft 439 kts 61°
2026-05-04 17:07 51.98795 0.03811 23015 ft 440 kts 53°
2026-05-04 17:08 52.00687 0.07730 23020 ft 441 kts 50°
2026-05-04 17:08 52.05087 0.14636 23020 ft 440 kts 39°
2026-05-04 17:08 52.07447 0.17804 23019 ft 440 kts 38°
2026-05-04 17:09 52.09800 0.20881 23020 ft 436 kts 38°
2026-05-04 17:09 52.12138 0.23959 23017 ft 434 kts 38°
2026-05-04 17:09 52.14478 0.27081 23019 ft 435 kts 38°
2026-05-04 17:10 52.19126 0.33371 23022 ft 427 kts 39°
2026-05-04 17:10 52.25877 0.42635 20536 ft 418 kts 40°
2026-05-04 17:11 52.28087 0.45689 19667 ft 412 kts 40°
2026-05-04 17:11 52.30157 0.48553 18821 ft 384 kts 40°
2026-05-04 17:11 52.34239 0.54167 16997 ft 383 kts 40°
2026-05-04 17:12 52.36266 0.56971 16114 ft 381 kts 40°
2026-05-04 17:12 52.40176 0.62453 14394 ft 352 kts 40°
2026-05-04 17:13 52.45210 0.69862 11692 ft 308 kts 41°
2026-05-04 17:14 52.49875 0.76857 9047 ft 312 kts 40°
2026-05-04 17:14 52.51485 0.79281 8155 ft 311 kts 41°
2026-05-04 17:14 52.54211 0.83475 6609 ft 241 kts 41°
2026-05-04 17:15 52.55504 0.85482 5819 ft 268 kts 41°
2026-05-04 17:15 52.58076 0.89436 4754 ft 241 kts 41°
2026-05-04 17:16 52.60424 0.93041 3697 ft 221 kts 42°
2026-05-04 17:16 52.63574 0.97891 3040 ft 189 kts 41°
2026-05-04 17:17 52.64533 0.99375 3032 ft 188 kts 42°
2026-05-04 17:17 52.67338 1.03861 2198 ft 176 kts 40°
2026-05-04 17:18 52.67855 1.05574 2027 ft 167 kts 84°
2026-05-04 17:18 52.67637 1.09262 1991 ft 156 kts 98°
2026-05-04 17:19 52.67273 1.12643 1835 ft 141 kts 87°
2026-05-04 17:19 52.67295 1.15517 1413 ft 117 kts 85°
2026-05-04 17:20 52.67472 1.18071 1039 ft 112 kts 81°
2026-05-04 17:20 52.67565 1.20596 815 ft 111 kts 91°
2026-05-04 17:20 52.67484 1.21867 687 ft 113 kts 90°
2026-05-04 17:21 52.67558 1.24457 450 ft 109 kts 83°
2026-05-04 17:21 52.67587 1.26947 149 ft 105 kts 88°
2026-05-04 17:22 52.67593 1.27985 122 ft 67 kts 90°
2026-05-04 17:22 52.67591 1.28374 120 ft 4 kts 103°
2026-05-04 17:23 52.67454 1.28238 117 ft 12 kts 213°
2026-05-04 17:23 52.67382 1.28151 121 ft 14 kts 215°
2026-05-04 17:23 52.67220 1.27955 121 ft 15 kts 220°
2026-05-04 17:24 52.67143 1.27844 119 ft 15 kts 217°
2026-05-04 17:24 52.67019 1.27918 120 ft 5 kts 184°
2026-05-04 17:25 52.66985 1.27903 117 ft 4 kts 189°
2026-05-04 17:25 52.66970 1.27900 120 ft 0 kts 189°